Dewpoint
15 15 14 12 12 12 10 9 9 9 9 11 13 13 13 14 13 13 13 13 13 14 13 12 12 13 14 14 14 13 13 13 13 12 11 11 10 10 9 7 2 -1 -7 -11 0 4 1 2 5 6 7 7 7 7 7 7 7 7 7 8 8 9 9 9 9 9 8 8 8 8 8 8 8 8 8 8 8 9 9 10 10 10 10 10 10
14 13 12 9 9 10 9 8 9 10 11 12 13 13 13 13 13 13 13 13 13 14 14 13 13 13 14 14 14 13 13 13 12 11 11 10 10 9 9 7 2 -2 -7 -7 -0 -1 -6 0 6 5 5 6 6 6 6 6 6 6 7 7 8 8 9 8 8 8 8 8 8 8 8 8 8 8 9 9 9 10 9 9 9 9 9 9 9
14 12 9 8 8 8 8 9 10 11 13 13 13 13 13 13 13 13 13 14 14 14 14 14 14 14 14 14 13 13 13 12 11 11 10 10 10 9 8 6 3 0 -1 -1 1 -3 -9 -1 4 2 2 3 4 5 6 6 7 7 7 7 7 7 8 8 9 8 8 8 8 8 7 7 8 8 9 9 9 10 10 10 9 9 8 9 9
14 11 9 9 9 8 9 11 11 11 12 12 12 13 13 13 13 14 14 14 14 14 14 14 14 14 14 14 14 13 12 11 10 10 10 10 9 9 8 7 4 3 4 3 4 1 -4 1 2 -2 -2 -1 1 3 4 5 6 6 6 7 7 7 8 8 9 9 8 8 8 8 8 8 8 9 9 9 9 10 10 10 9 9 9 8 8
13 12 10 10 9 9 9 11 11 12 13 13 13 13 13 13 13 14 14 13 14 14 14 14 14 14 14 13 13 12 11 10 10 10 9 10 9 9 9 7 4 6 7 5 5 2 -4 -1 -1 -5 -5 -2 -0 2 4 5 6 6 7 7 7 8 8 8 9 9 9 9 8 9 8 8 8 9 9 9 10 10 10 10 9 9 9 9 9
13 13 12 11 10 9 10 11 12 13 14 14 13 12 12 12 13 13 13 13 14 15 14 14 14 14 13 13 12 11 11 10 10 9 9 10 10 10 9 6 4 6 5 4 6 3 -7 -9 -8 -10 -8 -4 -0 3 5 6 7 7 8 8 8 8 9 8 8 9 9 9 8 8 8 8 8 9 9 10 10 10 10 10 10 9 9 10 10
13 13 13 12 9 9 11 12 13 14 14 13 13 12 12 12 13 13 13 14 14 14 14 14 14 14 13 12 12 11 10 10 10 10 10 10 10 9 7 4 2 1 0 2 4 0 -10 -14 -9 -8 -8 -8 -8 -4 2 6 7 7 7 8 9 9 8 8 8 8 8 8 8 8 8 8 9 9 9 10 10 10 11 10 10 10 10 10 10
12 12 13 12 10 10 12 12 13 13 13 13 12 12 12 12 12 13 13 14 14 14 14 14 13 13 13 12 12 11 11 11 11 10 11 10 10 8 5 1 -1 -6 -5 -0 -0 -5 -8 -6 -2 -1 -2 -4 -6 -4 -0 3 4 5 6 7 9 9 9 8 9 8 8 8 7 7 7 8 8 8 9 9 9 10 10 10 10 10 10 10 10
12 12 12 11 10 11 11 12 13 13 13 13 12 12 12 12 12 13 13 14 14 14 14 13 12 12 12 12 12 12 11 11 10 10 10 9 9 8 3 -0 -2 -5 -6 -2 -2 -2 0 2 4 3 2 2 3 4 4 4 4 6 7 8 8 8 8 9 9 8 8 8 7 7 7 7 8 8 8 9 9 9 9 9 10 11 10 10 10
12 12 11 10 11 11 12 12 13 13 13 13 12 12 12 12 13 13 13 14 14 13 14 13 12 11 11 11 12 12 11 11 10 9 8 8 7 6 4 4 3 0 -3 -2 2 4 4 5 6 6 6 7 8 8 8 8 8 9 9 9 9 9 9 8 8 8 8 8 7 7 7 7 7 7 8 7 8 9 9 9 10 10 10 10 10
12 12 11 10 11 11 12 13 13 13 13 13 13 13 13 13 13 13 13 14 13 13 13 13 11 10 10 11 12 12 12 11 10 8 8 7 3 1 6 8 5 1 0 2 5 6 5 5 5 6 8 8 8 9 10 9 9 9 8 8 8 8 8 8 9 9 8 8 8 8 8 8 8 8 8 7 8 9 9 9 10 10 10 10 10
12 12 11 11 12 12 12 13 13 13 13 13 13 13 13 13 13 14 14 14 13 13 13 12 11 11 11 11 11 12 12 10 9 7 7 5 -3 -2 6 7 1 1 4 4 5 5 3 3 3 5 8 7 6 8 9 8 7 7 6 7 7 7 7 7 7 8 8 8 9 9 9 9 9 8 8 8 8 9 9 8 9 9 10 10 10
12 13 12 11 12 12 12 13 13 14 14 14 13 13 13 14 14 14 14 14 14 13 12 11 11 11 12 11 11 11 10 8 8 6 3 -0 -6 -4 2 2 0 4 6 3 3 3 -0 -2 1 5 8 8 7 8 8 7 5 4 5 6 8 8 7 6 6 7 7 7 8 9 9 9 8 9 9 9 9 9 8 9 9 9 10 10 9
12 12 11 10 11 12 13 13 13 14 14 14 14 14 14 14 14 15 15 14 13 12 12 12 11 11 12 11 11 10 7 5 5 2 -0 -2 -7 -8 -1 2 4 7 6 3 1 -2 -5 -4 2 7 8 8 8 9 8 8 6 6 6 7 7 8 8 7 8 8 7 7 7 8 8 8 8 9 9 9 9 9 9 9 9 10 10 9 9
11 11 11 10 11 12 12 13 13 14 14 14 14 14 14 14 14 15 15 14 13 12 12 12 12 12 11 10 10 10 4 0 1 -0 -1 -3 -11 -5 4 6 7 8 7 4 -0 -4 -3 1 4 7 8 8 8 8 7 7 6 6 6 6 7 8 8 8 8 8 8 8 7 7 7 7 7 7 7 8 9 10 9 9 8 9 9 9 8
11 12 11 11 11 12 13 13 14 14 14 15 15 14 14 14 15 14 14 13 12 12 12 12 11 10 9 9 10 9 2 -2 2 0 -5 -8 -6 3 8 7 7 8 8 5 2 2 4 6 7 7 8 8 7 6 5 5 4 4 4 5 6 7 8 8 8 7 7 7 7 6 6 5 5 5 5 6 7 8 8 8 8 8 8 9 9
12 12 12 11 11 12 12 13 14 14 15 15 15 15 15 14 14 13 13 12 12 11 10 9 8 8 9 8 9 9 4 -2 -3 -7 -10 -5 2 6 8 8 8 9 8 6 5 6 7 8 8 7 8 8 6 4 4 4 4 4 5 6 6 7 7 8 7 7 7 7 7 7 6 6 5 5 5 5 5 6 7 8 8 8 9 9 9
13 12 12 11 11 12 13 13 14 15 16 16 15 15 15 14 13 12 12 12 11 9 8 8 7 6 4 1 1 6 5 -6 -18 -10 -2 2 4 4 6 9 9 9 8 7 6 7 8 8 8 7 8 7 5 4 4 4 4 5 6 7 7 7 8 8 8 7 7 6 6 7 7 7 6 6 6 6 6 6 6 6 8 9 9 10 10
14 12 12 11 12 12 13 13 13 13 14 15 15 15 14 14 12 11 11 10 9 7 7 9 8 4 -2 -10 -13 -5 -1 -7 -10 -2 2 3 1 1 5 9 8 7 7 7 7 8 8 8 8 7 7 7 5 3 4 4 5 7 7 7 8 8 8 8 7 7 6 6 7 7 8 8 8 8 8 7 8 8 7 6 7 8 8 9 10
14 12 12 11 12 13 12 11 12 13 14 15 15 15 14 12 10 7 6 8 8 6 6 7 5 -2 -9 -13 -19 -16 -8 -3 -0 2 2 1 1 0 2 6 6 5 5 7 8 8 8 8 8 7 7 6 4 4 5 6 6 7 8 9 9 8 7 7 7 7 7 7 7 7 8 8 8 8 8 8 8 9 8 8 7 8 9 9 10
13 12 11 11 12 12 11 12 13 14 14 15 15 13 11 8 4 1 2 4 4 2 2 1 -4 -11 -14 -14 -14 -10 -3 1 2 2 2 1 1 0 -0 2 3 2 3 7 9 8 8 8 7 7 6 4 3 5 7 7 7 8 9 8 8 7 6 7 7 8 7 8 8 8 8 8 8 8 8 8 8 8 9 9 9 9 9 9 9
13 12 11 10 11 11 11 13 14 14 15 15 12 8 5 3 1 2 3 4 3 -1 -5 -6 -11 -13 -13 -12 -8 -2 1 2 2 2 2 2 1 -0 -2 -1 -1 -2 1 6 8 8 7 7 7 6 4 3 5 7 7 7 7 8 8 7 6 6 7 8 8 8 8 8 8 8 8 8 8 8 8 8 8 8 9 9 9 9 9 9 9
14 13 11 9 9 11 12 13 14 15 15 12 5 1 2 2 3 4 4 5 3 -4 -11 -12 -13 -9 -4 -1 2 3 3 3 3 2 2 2 -0 -3 -4 -6 -6 -5 -2 3 6 7 6 7 7 5 4 6 7 7 7 7 7 7 7 6 7 7 8 8 8 7 7 8 8 8 8 8 8 8 8 8 8 8 8 8 8 8 9 9 9
14 13 10 8 10 12 13 14 15 15 13 7 1 2 4 4 5 5 5 3 -1 -9 -11 -8 -5 1 5 7 7 6 5 6 7 4 2 1 -2 -5 -8 -12 -12 -8 -3 1 4 5 5 6 7 6 6 8 8 7 8 8 8 7 7 7 8 8 8 8 8 8 8 8 8 8 8 8 8 8 8 8 8 8 8 8 7 8 8 8 9
15 13 9 9 12 13 12 14 15 14 8 2 2 3 4 6 5 5 4 1 -4 -7 -3 0 3 6 8 8 8 8 7 8 9 6 2 -0 -3 -7 -13 -17 -12 -5 -0 2 2 3 5 7 7 7 8 8 8 8 8 8 7 8 7 7 8 8 8 8 8 8 8 8 8 8 8 8 8 8 8 8 8 8 8 8 7 7 8 8 8
15 14 12 11 12 13 13 14 15 11 5 4 5 4 5 7 5 3 2 2 0 0 2 3 5 7 8 8 9 9 8 9 9 6 2 1 -2 -8 -11 -9 -6 -2 2 3 2 3 7 8 7 7 8 8 8 8 8 8 8 8 8 8 8 8 8 8 8 8 8 8 8 8 8 8 8 8 8 8 8 8 8 7 7 7 7 8 8
15 15 13 12 13 13 14 15 14 10 8 8 8 6 7 7 4 2 2 2 3 3 2 3 4 6 7 8 9 8 9 9 8 5 2 1 -2 -9 -10 -5 -1 1 3 2 2 5 8 7 6 7 8 8 8 8 8 8 8 8 8 8 8 8 8 8 8 8 8 8 8 8 8 8 8 8 8 8 8 8 8 8 7 8 7 8 8
16 15 13 12 13 14 14 14 13 11 10 10 8 7 7 6 3 2 2 2 2 2 2 3 4 6 7 8 8 8 8 8 6 4 3 2 -2 -10 -10 -3 2 3 2 1 4 6 8 7 7 8 8 8 8 8 8 8 8 8 8 8 8 8 8 8 8 8 8 8 8 8 8 8 8 8 8 8 8 8 8 7 8 8 7 7 8
16 14 13 13 14 14 14 13 12 11 10 8 6 7 6 3 2 2 0 -2 -3 -2 0 3 5 5 7 7 7 8 8 6 4 3 4 2 -4 -11 -7 0 3 2 -0 3 6 7 6 7 8 8 8 8 8 8 8 8 8 8 8 8 8 8 8 8 8 8 8 8 8 8 8 8 8 8 8 8 8 7 7 7 8 7 7 7 8
16 15 14 15 15 14 14 13 11 11 9 7 6 6 5 2 1 1 -1 -4 -6 -6 -5 -1 2 4 6 7 6 5 5 5 3 3 4 2 -6 -10 -3 2 2 -1 0 5 7 6 6 7 8 8 8 8 8 8 8 8 8 8 8 8 8 8 8 8 8 8 8 8 8 8 8 8 8 8 7 8 8 7 7 7 7 7 7 7 8
16 15 15 15 15 15 14 12 11 10 9 7 7 7 5 2 -0 -1 -2 -4 -5 -5 -6 -2 2 3 5 7 6 3 2 3 3 4 5 0 -8 -7 -0 1 -2 -1 3 6 7 6 7 8 8 8 8 8 8 8 8 8 8 8 8 8 8 8 8 8 8 8 8 8 8 8 8 8 7 7 7 7 7 7 7 7 7 7 7 7 8
15 15 15 15 15 14 13 11 10 9 9 9 9 8 5 2 0 -1 -3 -4 -2 -2 -3 -2 2 3 4 5 5 3 2 3 3 5 4 -3 -7 -4 -1 -2 -3 1 5 6 6 7 7 8 7 7 7 7 8 8 8 8 8 8 8 8 8 8 8 8 8 8 8 8 8 8 8 7 7 7 7 7 7 7 8 7 7 7 7 7 7
14 14 15 16 15 12 11 10 9 8 9 9 9 8 5 4 4 2 -1 -2 -1 -1 -1 -1 0 3 5 5 3 3 2 2 4 5 1 -6 -6 -2 -1 0 2 4 5 6 6 7 7 8 7 7 7 7 7 8 7 8 8 8 8 8 8 8 8 8 8 8 8 8 8 8 7 7 7 7 7 7 7 8 8 8 7 7 7 8 7
14 14 15 16 14 10 8 8 8 9 10 10 9 7 5 5 6 5 3 3 2 2 3 3 1 2 5 5 3 2 2 3 5 4 -2 -6 -4 -3 0 4 6 6 6 6 6 6 7 7 7 7 7 7 7 8 8 8 8 8 8 8 8 8 8 8 8 8 8 8 8 7 7 7 7 7 7 7 8 7 8 8 8 8 8 8 8
14 15 16 15 12 8 7 8 8 9 10 11 9 7 6 5 6 5 5 6 6 6 7 7 3 1 4 4 2 2 3 4 4 1 -5 -6 -3 -2 3 6 7 6 6 6 5 6 7 7 7 7 7 7 8 8 8 8 7 7 8 8 8 8 8 8 8 8 8 8 8 8 7 7 7 7 7 7 8 8 8 8 8 8 8 8 8
15 16 15 13 10 8 8 8 8 9 11 11 9 7 6 6 6 5 5 6 6 5 7 7 6 4 4 3 2 2 4 4 3 -2 -5 -3 -1 2 5 6 6 7 7 6 5 6 6 7 7 7 7 7 8 7 8 7 7 7 7 8 8 8 8 8 8 8 8 8 8 8 8 8 8 8 8 8 8 8 8 8 8 8 8 8 8
15 16 14 11 8 8 7 8 9 11 12 11 8 7 7 6 5 5 5 5 5 5 6 7 7 7 6 4 3 3 5 5 4 1 2 4 4 5 6 6 6 7 7 5 5 6 6 7 7 7 7 7 7 7 7 7 7 7 7 7 8 8 8 8 8 8 8 8 8 8 8 8 8 8 8 8 8 8 8 8 8 8 8 8 8
15 15 13 9 7 8 8 9 11 12 12 10 8 7 7 7 5 5 5 5 5 5 6 6 6 7 8 7 6 6 6 7 6 4 5 6 6 6 6 6 6 7 6 5 5 5 6 6 7 7 7 7 7 7 7 7 7 7 7 7 8 8 8 8 8 8 7 8 8 8 8 8 8 8 8 8 8 8 8 8 7 7 7 8 8
15 14 11 8 7 9 9 10 12 12 11 9 8 7 7 6 5 4 5 5 5 5 6 7 6 7 8 7 7 7 7 7 6 4 5 7 7 6 6 6 6 7 6 6 5 5 5 6 7 7 7 7 7 7 7 7 7 7 7 7 7 8 8 8 8 7 7 7 7 7 7 7 8 8 8 8 8 8 8 8 7 7 7 7 7
13 10 8 7 9 10 10 11 12 11 10 8 7 7 6 5 5 4 5 5 5 6 6 6 7 8 8 7 6 7 7 7 6 4 5 7 7 6 6 5 6 7 7 6 6 6 5 6 6 7 7 7 7 7 7 7 7 7 7 7 7 7 7 7 7 7 7 7 7 7 7 7 7 8 7 8 8 8 8 8 7 7 7 6 6
11 9 8 9 11 11 12 12 12 11 9 8 7 6 5 4 4 4 4 5 5 6 6 7 8 8 7 5 5 6 7 7 6 4 5 7 7 6 6 6 5 6 6 6 7 6 6 5 6 7 7 7 7 7 7 7 7 7 7 7 7 7 7 7 7 7 7 7 7 7 7 7 7 7 7 7 7 7 7 7 7 7 6 6 6
10 10 11 11 12 12 13 12 11 9 8 7 5 5 5 5 4 4 4 5 5 6 6 7 7 7 6 5 5 5 6 7 6 4 5 7 7 6 6 5 5 5 5 5 6 7 6 6 6 7 7 7 7 7 7 7 7 7 7 7 7 7 7 7 7 7 7 7 7 7 7 7 7 7 7 7 7 6 6 6 6 6 6 6 6
12 11 11 11 12 12 11 10 9 8 7 5 4 5 5 5 4 4 4 5 5 6 7 7 8 8 6 5 5 6 7 7 5 4 5 6 7 6 5 4 5 5 4 3 3 5 6 6 6 6 7 7 7 7 7 7 7 7 7 7 7 7 7 7 7 7 7 7 7 7 7 7 7 7 7 7 6 6 6 6 6 5 5 5 5
12 12 12 11 11 10 9 8 7 6 5 4 5 5 5 4 3 3 4 5 5 7 7 7 8 8 7 6 6 7 7 7 5 4 5 6 6 6 5 4 4 4 3 1 0 2 5 6 6 6 7 7 7 7 7 7 7 7 7 7 7 7 7 7 7 7 7 7 7 7 7 7 7 7 7 6 6 6 6 6 6 5 5 5 5
13 12 11 10 9 8 8 7 6 5 4 4 4 5 5 4 3 4 4 5 5 6 7 7 7 8 7 7 7 7 7 7 5 4 5 6 6 5 5 4 4 2 1 -0 -1 -0 2 4 5 6 7 7 6 6 7 7 6 6 6 6 7 7 7 7 7 7 7 7 7 7 7 7 7 7 6 6 6 6 6 6 6 6 5 5 5
13 12 10 9 8 8 7 5 4 4 4 4 4 4 4 3 3 3 4 5 5 6 6 7 7 8 8 7 7 7 7 7 5 3 4 6 6 5 4 5 4 2 -1 -2 -2 -1 -0 0 1 3 5 5 5 5 6 6 6 5 5 5 6 7 7 7 7 7 7 7 7 7 7 7 7 6 6 6 6 6 6 6 6 5 5 5 5
13 11 9 8 7 6 5 4 4 4 3 3 3 3 3 3 3 3 4 4 5 6 6 7 7 8 7 7 7 7 7 6 5 3 4 5 5 4 4 4 4 2 -1 -3 -3 -2 -2 -1 -1 -0 1 2 3 3 3 4 5 4 4 4 5 6 7 7 7 7 7 7 7 7 7 7 7 6 6 6 6 6 6 6 6 5 5 5 5
11 9 8 7 6 4 3 3 3 3 3 3 3 3 2 2 2 3 4 4 5 6 6 7 8 8 7 7 7 7 7 6 4 3 4 5 5 3 2 3 3 2 -1 -3 -3 -3 -3 -3 -2 -2 -1 -1 -0 0 1 1 2 2 3 3 4 5 6 7 7 7 7 7 7 7 7 7 6 6 6 6 6 6 6 6 6 6 6 6 5
9 7 6 5 4 4 3 3 3 3 3 3 3 2 1 1 2 3 4 5 5 5 6 7 7 7 7 7 7 7 6 6 5 3 4 5 5 3 1 1 2 2 -0 -2 -3 -3 -3 -4 -4 -3 -3 -2 -2 -1 -1 -0 0 0 1 1 3 4 5 6 6 6 6 6 6 6 6 6 6 6 6 6 6 6 6 6 6 5 5 5 5
4 4 4 3 3 3 3 3 3 3 2 2 2 1 1 1 2 3 4 5 5 5 6 7 7 7 6 7 7 7 6 6 5 3 4 5 5 4 2 1 1 1 -1 -2 -3 -3 -3 -4 -5 -5 -4 -3 -3 -3 -2 -2 -2 -1 -1 -1 0 1 2 4 5 6 6 5 5 5 6 5 5 5 5 6 5 5 5 6 5 5 5 5 5
-1 2 3 3 3 3 3 3 3 3 2 2 2 2 1 2 3 3 4 5 5 5 6 6 7 6 6 6 6 7 7 6 5 4 4 5 4 3 2 2 1 0 -1 -2 -2 -3 -4 -4 -5 -5 -5 -4 -4 -4 -4 -3 -3 -3 -3 -3 -2 -2 -2 0 2 4 5 5 6 6 5 5 5 5 5 5 4 4 4 4 4 4 4 4 4
Wind_Speed
8 9 9 11 12 10 10 11 11 11 10 9 8 6 7 7 6 6 5 5 5 4 4 3 3 3 3 2 1 1 3 2 4 5 5 5 6 7 10 15 18 16 12 9 8 7 8 7 7 8 8 8 9 9 9 9 9 9 9 9 10 10 10 11 13 15 14 13 13 13 12 12 11 11 10 10 10 11 11 11 12 14 14 15 18
8 9 10 11 12 10 11 12 11 11 10 9 8 7 7 7 7 6 5 5 6 5 5 4 4 4 2 1 1 3 4 3 3 3 4 5 7 8 11 16 18 15 11 9 8 7 7 6 7 8 8 8 9 9 10 9 10 10 10 10 10 10 11 12 14 15 16 15 14 14 13 13 12 11 11 12 12 13 13 13 13 13 13 14 15
8 10 11 11 10 9 10 11 10 10 10 9 8 8 7 7 6 6 6 6 5 5 4 3 4 3 2 2 2 2 3 3 3 4 5 7 8 10 14 17 15 12 10 9 9 9 9 8 8 9 9 9 10 10 10 10 10 10 11 11 11 12 12 12 14 15 17 16 15 15 15 14 14 14 13 14 15 14 14 14 14 14 14 15 15
8 10 11 9 8 8 9 10 9 9 9 8 7 6 5 6 6 6 6 5 4 4 4 4 4 3 2 2 2 3 3 3 4 5 7 9 11 14 17 16 12 9 10 10 9 12 12 9 9 11 11 11 11 10 10 10 11 12 12 12 12 12 12 12 13 15 16 17 16 16 16 16 16 16 15 15 15 15 16 15 15 15 16 16 17
8 9 9 7 7 6 7 8 6 6 6 6 5 5 5 5 5 5 5 5 5 5 5 4 3 3 2 2 3 3 3 4 5 7 9 12 13 15 17 16 12 8 10 12 11 14 15 12 12 13 13 12 11 10 11 11 12 12 12 12 12 13 13 13 13 14 16 18 18 17 17 17 17 16 15 15 16 15 15 15 15 16 16 17 17
7 8 7 6 5 4 6 6 4 4 4 4 4 4 5 5 5 6 7 8 7 6 5 4 3 2 2 3 2 2 3 4 6 9 11 13 13 14 16 16 12 10 12 14 13 15 17 15 14 14 13 12 11 11 11 11 12 12 12 13 13 13 13 14 14 14 15 16 17 17 17 16 16 15 15 15 15 15 15 15 15 15 16 17 17
7 7 6 4 4 4 5 5 3 2 2 2 3 4 5 5 6 7 8 8 7 6 6 4 2 2 2 2 1 3 4 5 7 10 12 13 14 17 18 16 15 14 15 15 14 15 16 15 14 14 14 13 13 11 11 11 11 12 12 12 12 13 13 14 14 15 15 16 16 16 16 15 15 15 15 15 15 15 14 14 15 14 15 16 15
6 6 5 4 3 4 5 4 2 1 1 2 3 4 6 6 7 8 9 9 7 6 5 4 3 3 3 2 2 4 6 5 7 10 11 12 15 17 18 16 16 17 16 16 15 15 15 13 12 13 13 13 12 10 9 10 10 11 11 12 12 13 14 14 15 15 16 17 17 16 16 16 16 15 14 14 14 14 13 14 14 13 12 13 13
7 6 6 5 4 5 5 4 3 2 2 3 5 6 7 7 8 8 10 9 8 6 4 4 4 4 3 3 3 5 6 5 6 9 11 13 15 16 17 16 17 19 18 17 15 14 13 12 11 12 13 12 11 11 9 9 10 10 11 11 12 13 14 14 15 16 16 17 18 17 17 17 16 14 14 13 14 14 14 14 14 12 12 12 12
8 8 7 6 5 5 5 5 4 3 3 5 6 7 7 8 8 9 10 10 8 6 3 4 5 4 4 4 4 5 5 5 9 12 13 14 15 15 16 16 17 19 18 16 14 14 13 12 12 13 12 11 11 11 10 10 10 10 11 11 11 12 13 14 15 16 16 17 18 17 17 17 16 14 15 14 13 13 14 14 12 11 11 11 12
10 10 9 8 7 7 6 5 4 3 4 6 7 8 8 8 9 10 10 10 7 5 4 4 5 6 5 5 5 6 5 7 11 14 15 16 16 15 15 16 17 17 16 14 13 13 14 13 13 13 11 11 12 11 11 12 12 12 13 13 13 13 13 15 15 16 17 17 17 17 17 17 16 14 15 14 13 13 14 12 10 10 10 10 11
11 11 10 9 7 7 7 5 4 4 5 7 8 8 8 9 10 11 10 8 6 4 5 5 5 6 5 6 6 6 7 10 13 14 15 16 16 15 15 15 16 14 13 13 13 13 14 14 14 13 12 14 15 12 12 14 15 16 17 16 16 15 14 15 17 18 19 19 18 18 17 17 16 15 14 13 13 13 13 12 11 10 10 10 10
11 10 10 9 8 7 7 6 6 5 7 9 9 9 9 10 11 10 8 7 5 5 5 6 6 6 5 6 5 4 9 12 13 14 15 15 15 16 16 15 13 11 11 13 13 14 15 15 15 13 13 15 15 13 14 17 19 21 20 18 17 17 16 17 17 17 19 19 20 19 18 18 18 17 15 14 13 13 12 12 11 11 11 11 10
11 10 10 9 8 7 7 7 7 6 8 9 10 10 10 11 11 9 7 5 4 5 5 5 6 6 5 6 4 5 9 11 12 14 14 15 17 16 14 12 10 10 11 13 13 14 16 16 15 13 13 15 15 14 16 20 23 24 23 21 19 18 19 19 18 17 18 18 19 19 18 18 19 18 16 15 15 14 13 13 13 12 12 13 12
10 9 9 9 8 7 7 6 6 7 9 10 10 10 11 11 10 8 5 4 4 5 5 5 6 6 5 5 4 6 9 10 12 14 14 17 17 13 10 10 9 9 11 13 14 16 17 16 15 13 14 15 16 19 22 26 28 28 27 25 23 20 19 18 18 18 17 17 18 18 17 17 18 18 18 17 16 16 16 15 15 14 13 13 13
11 9 8 8 7 7 6 6 6 7 8 9 10 11 11 9 7 6 4 4 4 5 5 4 4 5 5 4 3 6 10 11 12 14 16 17 15 9 7 9 9 9 12 13 15 16 16 15 15 15 15 16 19 24 27 28 30 30 28 26 24 22 19 18 18 18 17 16 17 17 17 17 17 18 18 17 18 17 16 16 16 14 14 14 13
11 9 8 7 7 6 5 6 6 6 7 9 10 11 9 7 5 5 4 4 4 3 4 4 4 4 4 4 3 6 11 12 13 14 15 14 11 8 7 9 10 11 13 15 16 16 14 14 15 16 15 18 23 28 29 30 31 30 28 25 22 21 20 20 19 18 17 17 17 18 18 17 17 18 17 17 18 17 17 17 16 14 14 14 13
11 9 8 7 6 6 6 7 6 4 6 9 10 9 6 5 4 4 3 3 4 4 4 4 4 5 6 6 5 5 10 13 13 12 12 10 9 9 9 9 11 13 14 16 17 15 14 15 17 17 17 21 28 32 32 32 32 30 27 22 18 17 18 19 19 19 19 18 18 18 18 16 15 17 16 14 14 16 18 19 17 16 15 14 13
11 10 9 8 8 9 9 9 7 4 5 8 8 6 4 3 4 4 3 3 4 4 3 3 5 7 8 9 8 6 8 11 12 10 9 9 10 12 11 10 12 15 16 17 17 16 16 17 18 20 22 26 32 35 33 32 30 25 20 16 14 14 15 17 19 20 20 18 16 16 16 13 12 13 12 11 11 13 17 18 18 18 17 15 14
11 11 10 10 11 12 11 9 7 5 5 5 4 3 3 3 3 3 3 3 3 4 4 5 7 9 10 10 10 8 8 9 9 8 8 10 13 15 14 12 14 17 18 18 18 17 17 19 19 21 26 31 35 35 31 27 22 17 13 11 13 14 16 17 17 18 17 15 13 13 12 11 10 10 11 11 10 12 14 15 15 16 15 14 13
12 12 13 14 14 12 10 9 8 6 5 3 2 2 2 2 2 3 3 4 5 6 6 7 9 10 10 10 10 9 8 7 7 8 10 13 14 16 16 16 17 19 19 19 18 17 19 21 21 23 29 34 34 29 23 19 15 11 10 12 14 15 17 16 15 15 14 12 10 10 10 11 11 11 11 10 10 11 11 10 11 12 13 12 12
13 13 15 16 14 11 10 10 8 6 4 2 2 2 1 1 1 3 4 5 7 8 7 8 10 10 10 9 9 8 7 6 7 10 12 14 15 16 16 16 18 19 21 20 19 19 22 22 23 27 31 30 26 20 17 14 12 11 12 14 14 16 16 15 13 13 12 10 9 9 10 10 11 11 10 9 9 9 9 9 9 10 10 9 11
13 14 16 16 13 11 10 10 9 6 3 3 4 4 2 1 2 3 5 6 8 9 8 9 10 9 8 9 8 8 7 7 9 12 13 14 16 17 17 18 19 20 22 22 20 21 23 23 24 26 25 20 16 15 14 14 13 13 15 14 14 15 13 11 11 11 10 9 9 8 8 8 9 10 9 8 7 8 10 11 11 9 8 8 9
13 15 16 15 12 11 11 10 9 5 4 5 6 5 3 1 2 4 5 7 8 9 9 9 9 7 6 6 7 7 8 7 8 12 14 15 16 17 18 19 20 21 22 22 22 24 25 24 22 22 20 17 14 13 13 14 16 15 13 11 11 10 9 8 10 11 11 10 10 8 8 7 7 8 9 7 6 6 8 10 11 11 9 9 8
13 13 15 14 13 12 11 9 8 5 6 8 7 5 3 1 3 4 6 7 8 8 7 7 6 5 4 5 7 7 8 7 8 12 16 17 18 20 20 21 22 23 23 24 26 27 24 21 21 21 20 17 14 11 11 13 15 15 14 12 9 8 9 10 12 13 12 11 10 9 8 7 7 7 7 7 6 6 7 8 9 10 10 8 8
12 11 13 14 14 12 10 9 7 7 9 9 6 5 3 1 3 5 4 3 5 6 5 5 4 3 4 6 6 7 7 7 9 13 17 18 20 21 22 22 24 25 25 27 29 26 20 18 20 21 19 16 13 11 12 13 13 12 12 11 8 9 11 14 14 15 15 13 10 10 9 8 8 8 7 6 5 6 6 6 6 7 8 7 7
11 11 12 14 14 12 9 8 8 10 11 8 6 4 3 2 1 3 2 1 3 4 4 4 3 3 4 6 6 7 7 8 11 15 17 19 21 22 22 23 24 26 27 28 26 20 16 17 18 18 16 13 12 12 12 12 11 10 9 9 9 10 13 15 16 16 15 13 12 11 10 9 9 8 6 4 4 4 5 5 3 4 5 7 7
11 12 13 14 13 10 8 8 11 12 10 9 8 6 4 3 2 2 2 1 2 3 4 4 4 4 5 6 6 6 7 8 12 16 18 20 23 23 23 24 25 27 28 25 20 16 17 17 16 14 11 10 10 11 12 12 11 10 10 9 10 11 13 15 17 17 16 14 13 12 10 9 8 7 6 4 3 3 4 3 2 3 3 5 7
12 12 13 12 11 8 8 11 12 11 10 10 8 6 5 4 4 3 1 1 0 2 3 3 3 3 5 6 6 6 6 9 13 16 19 22 23 24 23 23 25 27 26 20 17 18 17 15 13 12 11 10 11 13 15 14 13 12 12 11 11 12 14 16 17 17 15 14 13 12 10 8 7 6 5 4 3 2 3 3 2 3 2 1 4
12 12 11 10 9 9 11 13 12 11 10 9 6 5 4 3 3 2 1 1 1 3 5 4 2 2 3 4 6 4 6 10 13 16 19 22 22 23 22 22 23 25 23 18 17 18 16 13 12 12 11 11 12 13 14 16 15 13 14 13 11 13 16 17 18 17 15 13 14 14 12 9 8 7 5 4 3 2 3 2 2 2 2 2 3
12 10 9 10 10 11 12 13 13 12 10 8 6 4 3 2 1 1 0 1 3 6 9 8 5 3 3 3 4 4 6 10 13 16 19 22 22 21 20 20 23 25 22 19 18 17 15 12 12 12 11 12 13 13 14 15 14 14 16 16 12 12 15 19 20 18 16 14 15 14 13 11 10 8 5 4 4 3 3 4 3 3 3 3 4
12 11 10 10 11 13 13 13 14 13 10 8 6 4 3 3 1 1 2 3 4 7 9 9 7 5 4 3 2 4 6 10 13 16 20 21 21 20 18 21 25 25 21 19 18 16 13 11 11 12 12 12 12 14 15 16 16 15 16 17 14 14 16 20 21 18 17 17 17 15 13 13 12 10 8 7 7 6 5 4 3 3 3 4 5
11 10 10 10 12 15 15 14 14 12 9 7 5 4 5 5 3 1 2 4 5 6 8 9 8 6 4 3 2 4 7 10 13 17 20 21 20 19 19 22 25 24 20 19 18 16 13 12 12 12 12 12 12 12 14 17 17 16 16 16 16 16 18 20 20 18 18 19 19 17 15 14 14 13 12 10 9 7 6 5 5 5 6 7 7
10 10 11 11 13 16 17 15 13 11 8 6 6 6 6 6 4 3 2 3 4 5 7 9 9 6 4 3 3 4 7 11 14 17 20 20 18 19 21 20 20 20 20 19 19 17 14 13 13 14 13 13 13 13 14 16 16 15 15 17 17 18 19 19 19 18 19 20 20 18 15 15 15 15 14 13 11 11 9 9 9 9 9 9 10
10 11 11 11 13 16 16 14 12 11 8 7 7 7 6 5 4 4 3 2 2 2 3 6 8 6 4 3 4 5 8 11 14 17 19 18 18 21 21 18 16 17 19 19 20 18 15 13 13 15 15 14 15 16 16 15 14 13 14 15 16 17 19 19 18 18 18 19 19 18 16 14 14 14 15 14 14 14 14 13 13 12 13 12 12
11 12 12 13 16 17 16 14 11 10 8 7 7 7 6 5 4 3 3 3 3 2 1 2 5 6 5 4 4 6 8 11 14 17 19 20 21 21 20 18 17 17 17 19 20 19 16 13 12 14 15 15 15 15 15 14 12 11 12 13 14 16 17 18 18 17 17 17 17 17 16 14 13 12 13 13 14 14 14 13 12 12 11 10 11
12 11 13 16 18 17 15 12 10 9 8 8 8 8 6 5 4 4 3 4 3 1 1 2 3 5 5 4 4 6 9 12 17 19 19 20 20 18 16 17 18 16 17 19 20 19 17 14 12 12 13 13 14 14 13 12 11 11 12 14 15 15 15 17 17 17 17 18 17 16 15 14 13 12 13 14 14 14 13 12 12 12 11 11 12
11 11 15 18 19 16 13 11 10 9 9 9 9 7 6 5 5 4 4 4 4 2 2 3 2 2 2 3 5 8 11 13 16 16 15 15 16 16 15 16 16 15 17 19 19 19 18 15 12 11 11 11 12 13 12 12 12 12 13 14 14 13 15 17 18 18 18 18 18 18 17 15 13 13 14 15 16 16 16 16 16 16 16 16 17
13 15 18 18 17 14 12 11 11 11 10 10 8 7 6 6 6 5 5 4 3 2 2 2 2 2 2 2 3 6 9 10 11 11 11 11 13 15 16 16 16 15 16 18 19 19 18 16 13 11 10 10 11 12 12 11 12 13 14 14 12 13 16 18 19 19 20 20 19 18 18 17 16 15 15 16 16 17 18 18 18 19 19 18 17
14 16 17 17 15 13 12 11 11 12 11 10 8 7 7 7 6 6 6 5 4 2 2 2 3 2 2 2 2 4 5 7 9 10 11 11 12 14 16 16 16 16 16 17 18 18 18 16 14 12 10 10 10 11 12 12 12 12 14 13 12 12 15 17 18 18 19 19 18 17 18 19 19 18 19 19 18 18 18 18 19 19 19 18 17
16 17 17 16 14 13 11 11 12 13 12 10 9 8 8 8 7 6 6 6 4 3 2 3 3 3 3 3 3 5 6 7 8 9 9 10 11 13 14 15 17 17 17 16 16 16 16 16 14 12 11 11 10 10 11 12 13 13 13 13 12 11 12 14 16 16 15 16 16 16 17 19 20 20 20 20 20 20 20 20 21 22 21 21 20
18 17 16 15 13 12 11 12 13 14 12 11 9 9 9 8 8 7 7 7 5 4 4 4 3 4 4 4 3 5 7 7 8 9 9 9 10 12 13 14 15 18 19 19 17 15 14 15 14 12 11 11 11 11 11 12 13 13 12 12 12 12 12 12 14 15 14 14 15 15 16 17 18 18 18 18 19 20 20 20 21 21 22 22 22
18 17 15 14 12 12 12 13 14 14 12 11 10 10 10 9 8 8 8 7 6 5 4 4 4 4 4 4 5 7 7 7 7 8 8 8 9 11 12 14 15 17 19 21 20 16 13 13 13 12 11 10 11 11 11 12 12 12 12 11 12 12 12 11 12 13 13 12 13 15 15 15 15 15 15 15 17 19 20 20 20 21 21 22 23
17 16 15 13 13 13 14 15 14 13 12 12 11 11 10 10 9 8 8 8 7 6 5 5 4 4 3 3 5 6 5 5 6 7 7 8 9 10 11 14 16 17 19 21 23 21 17 14 12 12 11 11 11 11 11 12 12 12 11 11 11 12 12 12 12 12 12 11 12 13 13 13 13 14 14 15 17 18 18 18 19 19 21 22 23
17 16 15 14 14 15 15 15 14 13 13 12 11 11 11 10 9 9 9 8 7 6 6 5 5 4 4 3 3 3 3 4 6 7 6 7 8 9 10 12 15 17 19 21 23 25 24 20 17 13 11 11 12 12 12 12 12 13 12 11 10 11 12 11 11 11 11 11 12 12 12 12 13 14 14 15 15 16 16 16 17 18 18 18 19
17 16 16 15 16 16 15 15 15 14 13 12 11 11 11 11 10 10 9 8 7 7 6 6 5 4 4 4 3 2 3 4 4 5 6 6 7 8 10 12 13 16 19 21 22 24 26 26 25 21 17 15 16 16 15 13 12 14 16 15 11 11 12 12 11 11 11 11 11 12 13 13 14 15 15 16 16 16 16 16 17 18 18 17 18
18 17 16 16 16 16 16 16 16 15 13 12 12 12 11 11 11 11 10 9 8 7 6 6 6 5 4 4 4 3 3 3 4 4 5 6 7 8 10 11 12 15 18 20 22 24 25 26 27 27 26 24 24 23 22 19 18 19 20 19 15 14 14 12 10 10 11 11 11 12 12 13 13 14 15 15 16 16 17 17 17 17 17 17 19
19 18 17 17 17 17 17 17 17 16 14 13 12 12 12 12 12 11 11 10 9 7 7 7 6 5 5 5 4 4 3 3 3 4 4 5 6 8 10 11 12 14 16 19 22 23 24 26 27 28 28 28 28 28 27 26 25 24 23 21 19 17 16 15 14 14 14 12 12 13 13 14 14 14 14 15 15 16 17 17 17 16 16 16 16
20 19 18 17 17 17 17 17 17 16 15 14 13 12 12 12 13 12 11 10 8 7 7 7 7 6 6 6 5 5 4 3 3 4 4 5 5 7 9 11 12 13 15 18 21 24 25 26 27 28 29 29 30 29 29 29 29 28 27 25 22 20 19 19 21 20 18 15 14 14 14 14 15 16 15 15 15 15 15 15 16 17 17 17 17
21 20 19 18 18 18 17 18 17 17 16 15 14 13 13 13 12 12 11 10 9 8 7 8 8 7 7 7 6 5 5 4 4 4 4 5 5 7 9 11 13 14 16 18 21 23 25 26 27 28 29 30 31 31 31 31 31 32 31 30 28 25 22 22 22 21 19 18 18 18 18 18 18 19 18 18 18 18 17 17 18 19 20 20 21
22 20 19 19 18 18 18 18 18 18 17 16 15 14 13 13 12 12 11 10 9 8 8 9 9 8 8 8 7 6 6 6 5 5 5 5 6 7 8 10 12 14 16 17 19 22 24 25 26 28 29 30 31 31 32 32 32 32 32 32 32 31 30 29 28 26 23 19 17 18 19 20 20 21 21 21 21 22 22 22 22 22 23 24 24
Wind_Direction
110 110 109 106 100 97 102 103 102 100 97 95 95 95 91 86 80 77 73 66 62 53 39 17 4 29 49 83 118 305 323 17 23 11 13 14 12 5 350 343 346 351 352 357 3 349 341 345 340 330 321 315 308 301 299 296 293 290 287 284 281 278 276 274 276 282 285 286 289 291 292 294 293 290 291 288 282 284 286 283 279 276 273 269 273
121 118 114 113 111 113 115 111 109 105 97 90 89 89 87 85 80 73 62 48 46 43 36 22 2 8 14 12 357 330 347 22 37 19 15 17 14 3 352 349 351 355 360 5 2 347 345 349 338 332 327 317 309 304 301 297 294 293 288 286 284 279 277 276 277 280 283 284 285 288 289 289 289 288 288 288 287 285 283 283 283 280 276 270 267
131 127 122 120 118 122 121 115 111 106 100 96 93 89 86 83 75 66 53 42 37 32 27 8 347 352 354 354 3 356 9 29 31 16 8 5 1 352 350 352 357 3 6 5 357 350 354 352 332 327 324 316 310 306 302 297 296 294 290 288 286 283 280 278 277 278 281 282 282 284 285 284 283 284 285 285 286 286 283 282 280 275 274 275 273
142 140 133 125 120 125 125 119 112 105 102 101 97 86 74 68 61 56 48 38 25 11 5 357 355 4 9 17 19 4 6 22 19 9 358 351 350 350 353 357 3 7 3 2 356 350 353 347 327 326 326 321 315 308 302 299 297 295 293 290 287 285 284 281 278 278 280 281 281 281 282 283 282 281 282 282 283 283 282 281 279 274 269 270 271
151 151 143 130 121 127 133 127 114 103 100 97 87 69 54 50 46 40 27 16 11 7 3 4 4 358 357 23 38 22 7 7 360 352 349 351 353 354 354 355 1 3 354 355 351 345 346 340 326 326 327 323 319 311 304 300 299 296 294 291 289 288 287 284 281 281 280 281 282 282 281 281 282 280 279 279 280 280 278 276 276 274 271 268 265
155 153 146 135 127 134 148 143 121 109 106 90 66 47 36 29 22 17 11 8 7 2 358 5 4 337 350 31 51 13 356 351 348 351 353 354 353 351 349 350 356 355 348 351 347 339 339 337 329 328 328 323 319 312 308 306 304 300 296 293 291 289 287 286 284 282 282 282 283 284 283 282 282 281 278 277 277 277 276 273 271 270 270 269 266
160 153 147 142 137 153 165 157 136 123 93 48 29 19 11 7 5 2 1 2 2 356 352 354 350 331 354 41 47 351 346 336 338 351 354 350 346 344 345 347 349 349 348 349 344 335 335 336 334 332 330 324 318 313 309 307 303 301 300 297 293 290 288 286 284 284 283 283 284 285 284 284 283 282 280 278 275 274 275 272 268 265 265 266 265
171 163 160 158 160 175 179 168 161 195 342 350 345 350 348 348 352 354 354 354 354 353 346 337 351 4 17 32 6 342 346 338 339 350 351 346 343 342 342 344 344 347 349 346 340 338 339 341 340 337 334 332 332 330 323 315 309 307 304 299 294 291 288 286 285 284 282 282 283 283 284 284 285 285 283 280 277 277 276 273 270 269 269 269 267
185 179 174 178 182 190 195 192 203 241 286 308 320 335 339 340 345 346 349 349 346 348 342 337 1 20 15 0 341 343 348 329 322 337 338 336 338 338 338 341 343 346 347 343 341 346 351 351 348 343 341 343 345 343 335 328 323 316 309 303 297 293 289 286 285 284 283 282 282 282 283 284 285 285 283 280 279 279 275 270 269 270 269 271 272
193 189 185 188 192 199 208 209 219 254 290 307 323 334 335 338 341 340 343 345 343 347 346 342 352 359 354 341 331 342 337 302 307 324 328 328 332 335 337 340 342 342 341 341 347 353 357 357 349 342 340 339 336 331 325 323 320 314 309 304 299 295 291 289 286 284 283 281 280 280 280 281 283 284 283 281 279 278 273 268 268 271 272 275 277
198 194 191 192 197 207 214 217 229 264 299 314 322 328 331 336 336 333 338 344 347 354 358 350 344 347 345 329 331 339 314 296 314 325 326 326 329 336 338 334 335 337 337 344 350 347 347 348 342 338 333 327 328 326 320 320 319 315 312 305 297 293 289 286 282 279 277 276 275 274 274 277 282 282 281 281 279 274 270 268 269 273 275 275 275
205 200 197 197 202 216 222 226 241 268 297 311 319 325 329 333 332 332 340 350 355 357 356 349 340 342 337 330 346 340 297 302 320 323 321 323 328 338 337 328 330 335 339 347 348 341 342 345 343 339 328 325 331 328 317 319 320 317 315 310 302 299 294 288 285 283 281 279 276 272 271 272 275 275 275 275 273 270 268 267 268 267 263 264 268
211 206 206 205 208 223 233 242 257 276 294 306 317 324 328 334 335 336 344 352 354 351 350 343 336 341 336 332 348 320 292 308 320 317 317 321 329 337 331 325 332 337 339 345 344 340 344 344 342 339 328 325 329 321 313 317 318 316 315 309 302 299 296 293 289 286 284 282 278 276 275 273 272 273 273 269 267 267 266 265 266 266 264 266 271
214 210 212 210 210 224 240 252 267 280 291 303 316 323 329 335 334 335 341 346 345 350 357 349 340 342 333 328 332 301 298 312 314 311 319 324 329 333 326 327 341 338 334 340 341 343 345 341 337 333 326 324 322 313 311 313 312 311 309 305 299 294 292 293 291 288 285 283 281 280 280 277 276 275 276 275 272 267 262 260 263 266 270 273 277
212 208 211 209 209 224 240 255 269 280 289 303 317 325 329 330 330 332 335 333 346 0 5 356 343 336 329 333 333 301 303 313 312 316 324 324 326 333 329 332 343 332 327 335 340 344 342 336 332 326 322 322 315 307 307 307 306 306 305 304 302 296 292 291 291 290 287 283 282 281 280 279 278 278 278 277 273 268 263 263 264 267 270 274 277
206 203 207 206 211 226 238 251 262 274 291 308 322 327 328 327 329 331 328 338 4 6 355 348 342 337 332 341 334 300 305 315 317 319 322 322 331 346 335 328 333 326 324 331 336 337 333 327 326 322 320 318 311 309 309 309 308 307 304 302 300 297 295 294 295 294 290 283 277 275 278 281 280 279 280 277 272 268 268 269 269 268 267 267 268
205 200 202 204 214 225 230 240 255 277 303 318 323 325 324 325 330 333 336 352 359 345 337 336 335 338 335 331 324 305 310 318 319 320 324 331 345 358 340 328 330 326 325 328 330 329 322 316 318 319 316 316 317 318 318 316 314 312 308 303 297 296 298 299 300 300 298 293 282 273 274 275 274 274 275 274 270 265 263 264 265 265 263 261 262
206 201 201 201 206 210 212 226 246 281 314 318 319 320 318 319 328 332 336 340 331 333 349 343 329 332 324 316 320 312 310 319 326 330 336 344 355 357 345 332 328 326 326 326 327 326 318 314 317 316 310 313 321 323 321 318 317 315 312 308 300 298 299 299 300 303 305 304 297 284 273 269 272 275 273 273 268 258 253 253 255 258 258 256 261
205 201 201 198 197 201 209 222 237 262 300 311 312 309 300 306 322 327 332 340 340 351 4 341 323 327 321 316 324 320 309 320 334 344 351 356 359 359 352 336 327 329 330 326 325 324 318 317 321 316 310 314 321 321 318 317 317 318 320 316 307 305 303 302 304 306 305 305 302 294 282 273 276 281 284 287 277 259 252 250 251 256 254 249 255
201 199 199 197 200 207 214 222 232 253 283 302 301 283 276 300 318 324 334 348 346 340 337 325 318 320 321 323 329 328 323 329 343 358 3 3 4 2 357 346 334 334 333 328 325 323 318 319 323 319 313 315 319 318 317 318 321 328 329 311 303 306 308 311 314 313 310 308 306 304 297 288 287 292 297 298 286 270 262 251 246 252 253 247 250
198 197 198 200 204 211 218 223 230 249 270 282 259 241 265 294 318 334 338 343 345 338 328 323 320 321 325 329 331 337 344 352 1 7 8 7 5 1 357 350 340 337 336 330 324 321 319 322 325 319 314 316 319 319 319 323 331 336 320 300 299 307 313 319 322 321 320 317 311 311 308 301 302 303 297 290 281 275 269 251 238 245 250 247 250
198 201 203 205 207 208 215 224 235 252 267 249 197 191 212 272 355 0 342 337 345 345 337 329 327 328 332 336 342 351 5 16 14 9 7 6 2 357 353 348 344 341 339 332 324 321 323 325 322 317 316 318 320 322 327 337 341 330 314 309 311 315 320 324 324 323 323 316 308 307 304 300 300 298 290 285 280 270 258 248 244 249 248 246 252
200 207 211 211 208 208 215 226 240 252 237 185 170 157 146 81 20 4 344 334 338 343 344 339 336 337 341 344 352 5 15 18 13 9 7 2 358 355 351 349 347 343 338 332 326 325 327 325 319 318 320 323 331 339 344 350 348 331 320 322 326 329 333 336 334 336 338 334 325 317 308 303 299 296 297 300 291 269 254 248 246 249 251 245 247
202 213 218 213 208 213 220 231 245 244 192 164 154 141 129 67 20 0 342 333 335 343 349 349 348 350 349 346 353 5 12 11 4 5 5 0 356 355 353 351 348 342 338 337 336 334 330 324 326 334 337 337 346 354 350 349 353 352 351 354 352 349 352 354 351 352 353 353 350 341 332 329 322 314 312 310 303 287 270 254 243 244 254 255 248
205 215 217 211 212 219 224 234 242 216 170 158 149 137 126 37 8 357 342 335 341 352 357 357 358 357 347 346 350 355 2 5 359 358 360 360 358 355 353 352 348 344 343 344 343 338 332 331 342 350 344 338 345 355 351 349 357 4 11 15 11 5 6 7 4 1 357 353 350 342 336 331 325 321 317 317 321 313 292 270 249 239 245 255 255
211 215 214 212 215 222 230 238 226 183 162 157 146 128 117 58 359 1 358 342 349 5 11 6 1 347 342 348 347 346 356 1 356 356 360 1 358 355 352 349 346 346 348 345 339 334 335 346 350 341 332 336 349 356 354 355 359 3 6 5 1 3 7 7 3 358 355 350 341 334 329 319 314 315 313 317 328 318 303 297 273 243 235 242 248
216 219 219 217 216 221 230 224 192 171 163 154 141 126 123 126 16 22 52 35 0 13 18 10 4 347 342 344 344 349 358 356 352 355 0 359 356 355 353 346 344 349 349 341 336 338 350 357 346 328 326 345 357 354 354 357 358 0 359 354 356 1 2 2 358 353 350 346 338 331 326 320 321 324 318 314 318 317 324 333 311 264 239 227 229
218 223 224 220 216 219 220 195 176 172 165 151 142 138 135 136 119 84 95 93 24 29 27 17 9 357 346 343 347 355 356 352 353 357 359 357 355 354 353 348 347 349 345 339 345 0 1 351 339 331 341 2 4 2 6 4 1 1 358 356 1 3 359 357 357 356 354 352 350 344 335 331 332 333 331 331 325 325 341 351 339 312 274 223 219
221 228 225 219 215 214 200 182 176 174 167 158 154 150 143 141 141 143 194 237 98 56 52 42 13 354 352 348 349 358 358 353 356 359 358 357 354 353 353 351 349 347 344 348 7 11 357 346 344 350 2 9 7 11 16 15 13 12 8 7 8 6 3 359 359 2 1 358 1 6 0 349 344 346 354 0 352 348 349 343 343 351 348 205 201
229 232 220 208 204 196 187 182 179 175 170 166 160 152 153 162 163 171 241 289 43 40 43 55 56 48 32 353 335 350 5 357 358 360 357 355 354 354 353 352 350 350 355 10 19 7 354 355 2 5 9 11 8 10 13 14 15 14 13 14 10 3 3 4 5 9 9 7 15 22 18 7 359 359 10 15 359 0 10 12 31 39 39 95 145
233 226 207 199 196 186 183 185 182 173 169 169 163 155 169 196 197 204 325 47 51 34 32 37 39 50 54 6 330 348 6 360 358 358 355 354 356 355 353 355 359 1 9 21 19 4 359 5 8 8 10 11 11 12 12 12 11 9 12 17 12 1 2 6 9 13 14 13 18 19 15 13 10 9 20 32 26 30 44 52 61 50 47 97 141
230 215 199 201 198 184 180 188 187 178 174 176 168 156 171 188 189 80 57 65 54 35 28 26 23 21 23 10 345 355 3 2 359 357 354 355 356 356 358 6 7 8 16 23 14 4 5 10 9 9 10 7 9 12 13 14 13 10 12 16 13 7 8 11 15 19 20 20 20 19 19 26 30 35 47 58 58 55 52 53 66 76 71 89 133
229 212 198 202 196 182 182 191 191 184 182 179 167 158 168 178 185 161 81 60 45 30 19 15 17 17 14 11 7 1 2 2 358 355 356 357 357 2 11 13 7 8 19 23 12 5 10 11 8 10 11 8 8 7 8 13 16 15 17 19 17 14 13 15 21 28 29 27 26 27 34 43 47 50 56 62 63 60 57 58 72 85 86 88 113
224 210 205 204 194 186 188 192 190 186 185 179 169 168 171 174 181 178 133 60 32 19 8 2 5 15 20 13 11 10 5 2 359 359 359 359 3 15 22 16 5 9 21 21 12 8 10 8 9 13 14 13 14 12 10 13 14 14 18 23 23 19 16 18 24 31 36 35 32 34 43 51 51 49 51 56 62 66 68 70 75 84 93 98 110
217 210 212 205 190 186 190 192 190 188 187 181 176 176 179 178 175 167 149 118 64 34 6 350 354 14 42 32 13 15 9 2 2 4 4 6 16 24 24 15 8 12 19 18 13 11 9 5 6 12 16 19 20 18 16 15 11 7 13 20 21 17 16 21 27 32 38 40 39 41 47 51 49 46 46 51 59 65 68 73 80 87 92 97 102
214 210 208 195 185 188 193 193 193 192 187 183 180 179 182 183 171 155 145 137 123 101 64 344 345 3 27 33 23 17 8 2 7 10 9 14 23 25 19 13 13 15 16 15 14 12 10 7 3 7 15 20 19 17 15 12 6 5 11 19 20 15 15 22 29 35 39 41 42 47 52 53 51 46 44 48 57 61 62 66 76 83 87 92 94
211 205 197 186 184 191 195 194 194 192 185 184 184 182 184 184 171 159 149 137 131 111 53 26 355 352 2 9 13 11 7 8 12 12 9 11 17 19 15 12 14 15 15 14 13 11 11 8 3 4 11 14 13 12 10 5 2 10 24 28 24 18 17 22 30 36 39 39 42 50 55 56 54 49 48 54 58 57 58 64 72 78 86 94 97
200 198 192 186 186 191 193 194 196 192 186 186 187 186 187 185 172 160 152 143 138 124 48 34 38 33 11 356 356 5 12 14 13 11 7 7 11 15 15 13 13 15 16 15 12 11 12 10 4 3 6 6 7 9 9 6 8 21 32 31 24 20 23 27 33 39 41 41 44 50 53 56 58 55 56 62 61 57 62 73 79 81 84 89 92
192 193 187 183 185 190 193 197 199 193 186 186 188 189 190 186 176 162 153 150 142 119 72 45 57 71 53 9 2 14 18 14 9 9 10 9 10 15 19 17 14 15 17 15 13 12 12 10 8 6 5 5 8 10 10 11 16 25 31 29 22 21 27 32 36 43 46 46 46 46 48 53 59 61 64 70 70 67 70 78 82 81 80 80 81
190 187 181 179 186 193 198 204 203 194 187 184 185 191 192 186 178 166 157 155 152 134 101 78 80 89 81 65 78 74 45 17 7 10 13 10 10 16 18 19 18 17 15 14 13 13 13 12 11 11 9 8 12 15 15 17 23 27 30 29 22 20 27 33 37 40 43 44 43 43 48 55 61 64 65 69 73 75 76 78 80 81 79 78 79
189 185 181 182 188 196 204 206 199 190 185 182 184 190 191 184 175 169 163 162 161 152 126 102 101 120 118 89 81 85 65 29 10 13 15 10 11 16 15 16 20 20 18 14 12 13 16 17 15 15 15 15 16 17 17 21 29 33 31 29 27 24 27 32 33 33 36 41 44 47 51 56 60 62 64 67 73 77 78 78 78 78 79 81 83
188 185 184 186 192 199 202 198 191 187 184 181 182 186 186 180 173 169 167 167 167 160 142 125 117 124 125 111 82 73 62 33 14 18 20 12 13 18 17 18 22 23 23 22 20 17 18 21 20 20 21 22 22 23 22 24 30 33 31 27 27 29 29 30 33 33 35 42 49 53 55 58 59 60 61 64 68 72 74 76 76 76 78 80 83
188 186 187 193 199 199 192 187 188 187 183 180 182 183 180 176 173 170 170 172 172 166 152 138 128 129 127 103 72 62 54 31 16 21 24 18 19 22 22 26 31 29 28 30 33 31 25 24 26 28 28 28 27 27 28 27 28 30 30 29 29 30 30 33 37 38 38 43 51 56 59 61 61 61 60 61 65 69 73 75 76 77 78 81 85
191 190 194 200 201 194 188 186 186 183 178 177 180 181 177 174 172 172 175 177 173 166 158 146 138 136 127 85 60 55 48 31 25 27 26 25 27 28 28 33 38 38 36 38 42 43 40 34 32 33 34 36 35 32 31 32 30 28 29 30 33 34 34 35 39 41 42 47 55 59 60 61 61 63 64 65 67 72 74 74 75 77 79 81 83
196 197 200 201 195 190 188 186 182 177 175 177 180 180 178 177 176 176 178 180 175 167 160 153 146 139 129 107 83 71 57 37 30 31 32 32 31 34 37 38 40 43 45 45 47 49 49 47 45 42 37 37 40 39 36 36 36 35 37 36 36 38 39 37 38 43 48 54 59 61 62 63 64 67 69 69 70 72 74 77 80 81 81 81 81
202 202 200 195 189 187 187 184 178 174 175 178 181 181 181 180 180 179 179 178 175 169 161 158 154 144 132 128 121 101 76 51 37 38 45 47 44 45 48 47 44 47 51 52 52 54 55 55 55 55 52 48 49 50 47 42 39 42 46 47 49 57 58 50 43 46 53 58 62 65 65 65 66 68 70 72 74 73 74 78 82 83 82 82 82
203 199 192 186 185 186 185 182 177 174 175 178 182 183 184 182 180 179 180 179 173 166 162 160 157 149 140 138 135 120 96 73 58 52 50 50 53 58 61 58 52 51 55 58 58 60 61 61 61 61 60 59 58 59 58 56 52 52 52 52 57 70 75 67 53 52 57 60 63 68 71 71 71 71 71 73 76 75 74 76 78 80 81 81 81
200 193 186 183 185 186 184 180 176 174 174 179 183 183 183 181 177 176 180 178 169 162 163 165 160 152 147 145 139 135 126 100 79 73 65 58 61 68 72 70 64 59 60 63 64 65 66 66 66 65 64 64 63 63 63 63 61 59 58 57 60 70 79 79 72 66 65 65 67 70 72 73 74 74 75 76 78 78 79 78 78 79 80 79 78
194 189 186 185 183 182 180 178 176 174 175 178 181 180 178 177 175 175 176 174 167 161 163 165 161 156 154 152 148 144 136 118 100 94 86 76 73 77 78 77 74 70 69 70 71 71 70 70 71 70 69 68 67 67 67 67 67 65 63 63 65 71 78 82 80 76 72 69 71 73 74 75 75 74 74 75 76 78 80 80 79 78 78 77 76
191 187 186 185 181 178 178 177 175 176 177 178 178 177 173 172 172 173 172 170 166 163 163 163 160 158 157 156 153 150 144 133 124 119 107 96 93 92 87 82 81 80 78 77 78 77 76 75 75 75 74 73 72 71 70 70 71 70 69 69 70 72 77 83 86 86 82 77 76 75 75 75 76 76 75 75 75 76 77 78 79 78 77 76 76
191 186 183 181 177 176 178 177 175 177 178 178 178 177 174 170 171 172 171 168 166 163 164 164 160 158 160 160 157 156 156 149 138 131 125 115 108 107 102 94 90 88 85 83 83 82 81 80 79 78 78 77 76 74 73 73 73 74 74 75 75 76 78 81 85 87 86 83 81 82 82 82 81 79 78 77 76 77 77 78 79 80 79 80 81
Height
1551 1551 1551 1551 1552 1552 1552 1552 1552 1552 1551 1552 1552 1552 1552 1552 1552 1552 1551 1551 1551 1551 1550 1550 1550 1550 1550 1550 1550 1549 1548 1548 1548 1547 1546 1545 1545 1544 1543 1540 1539 1538 1536 1535 1535 1534 1533 1532 1531 1531 1530 1529 1529 1528 1527 1527 1526 1525 1524 1523 1522 1522 1521 1520 1519 1517 1516 1516 1515 1514 1514 1513 1512 1512 1511 1511 1511 1510 1509 1509 1509 1508 1508 1509 1508
1551 1552 1552 1552 1553 1553 1553 1553 1552 1552 1553 1553 1553 1553 1553 1552 1552 1552 1552 1551 1551 1551 1551 1551 1551 1550 1550 1550 1549 1549 1548 1548 1548 1547 1546 1545 1545 1544 1542 1540 1539 1537 1536 1535 1534 1533 1532 1531 1531 1530 1529 1529 1528 1527 1526 1526 1525 1524 1523 1522 1521 1520 1519 1518 1517 1516 1514 1514 1513 1512 1512 1511 1511 1510 1510 1509 1508 1508 1507 1507 1507 1506 1506 1506 1506
1552 1552 1553 1553 1553 1554 1554 1553 1553 1553 1553 1554 1554 1554 1553 1552 1552 1552 1552 1552 1552 1552 1551 1551 1550 1550 1550 1549 1549 1548 1548 1548 1548 1546 1546 1545 1544 1543 1542 1540 1538 1537 1536 1535 1534 1532 1531 1530 1530 1529 1528 1527 1526 1525 1525 1524 1523 1522 1521 1520 1519 1518 1517 1517 1515 1514 1513 1512 1511 1511 1510 1509 1509 1508 1508 1507 1506 1505 1505 1504 1504 1504 1504 1503 1503
1552 1553 1553 1554 1554 1555 1554 1554 1554 1553 1554 1554 1553 1553 1553 1552 1552 1552 1552 1552 1552 1551 1551 1550 1550 1549 1549 1549 1549 1549 1548 1548 1547 1546 1545 1545 1543 1542 1541 1539 1538 1537 1536 1534 1533 1531 1530 1529 1529 1527 1526 1525 1524 1524 1523 1523 1522 1521 1520 1519 1518 1517 1516 1515 1513 1512 1511 1510 1509 1508 1508 1507 1506 1506 1505 1504 1504 1503 1502 1502 1502 1501 1501 1501 1500
1552 1553 1554 1554 1555 1555 1555 1555 1555 1554 1555 1554 1554 1553 1553 1553 1553 1552 1552 1552 1551 1550 1550 1550 1549 1549 1549 1548 1549 1549 1548 1548 1547 1546 1545 1544 1543 1542 1540 1539 1538 1537 1536 1534 1533 1531 1529 1528 1527 1525 1524 1523 1523 1523 1522 1521 1520 1519 1518 1517 1516 1515 1514 1512 1511 1510 1509 1508 1507 1506 1505 1505 1504 1503 1503 1502 1501 1501 1500 1500 1499 1499 1498 1498 1498
1552 1553 1554 1554 1555 1556 1556 1556 1556 1556 1556 1555 1554 1554 1554 1553 1553 1552 1552 1551 1550 1550 1549 1549 1549 1549 1548 1548 1549 1549 1548 1548 1547 1546 1545 1544 1543 1542 1540 1539 1538 1537 1536 1534 1532 1531 1528 1527 1525 1524 1523 1522 1521 1521 1520 1519 1518 1517 1516 1515 1514 1513 1511 1510 1509 1508 1507 1506 1505 1504 1503 1502 1501 1501 1500 1499 1498 1498 1497 1497 1496 1496 1496 1495 1494
1552 1553 1554 1555 1555 1556 1556 1556 1557 1556 1556 1555 1555 1554 1554 1554 1553 1552 1552 1551 1550 1550 1549 1549 1549 1548 1548 1548 1549 1548 1548 1547 1546 1545 1545 1544 1543 1542 1540 1539 1538 1537 1535 1533 1532 1530 1528 1526 1524 1523 1521 1520 1519 1518 1517 1517 1516 1515 1514 1513 1512 1511 1509 1508 1507 1506 1505 1504 1503 1502 1501 1500 1499 1498 1498 1497 1496 1495 1495 1494 1493 1493 1492 1492 1491
1552 1553 1554 1555 1556 1556 1556 1556 1556 1556 1556 1555 1555 1555 1554 1554 1553 1552 1551 1551 1550 1550 1549 1549 1548 1548 1548 1548 1548 1548 1547 1547 1546 1545 1545 1544 1543 1541 1540 1539 1537 1536 1534 1533 1531 1529 1527 1525 1524 1522 1521 1519 1518 1516 1515 1514 1513 1512 1512 1511 1510 1508 1507 1506 1505 1504 1503 1501 1500 1500 1498 1497 1497 1496 1495 1495 1494 1493 1492 1492 1490 1490 1490 1489 1488
1552 1553 1554 1555 1555 1555 1556 1556 1556 1556 1556 1555 1555 1555 1554 1554 1553 1552 1551 1551 1550 1550 1549 1549 1548 1548 1548 1549 1549 1548 1548 1548 1547 1546 1545 1544 1543 1541 1540 1538 1537 1535 1533 1532 1530 1528 1526 1525 1524 1522 1520 1518 1517 1515 1514 1512 1511 1510 1509 1508 1507 1506 1505 1504 1503 1502 1501 1499 1498 1497 1496 1495 1495 1494 1493 1493 1492 1491 1490 1489 1488 1487 1487 1487 1486
1551 1552 1553 1554 1554 1555 1555 1555 1556 1556 1556 1556 1555 1555 1554 1554 1553 1552 1551 1550 1550 1549 1549 1549 1549 1548 1549 1548 1548 1548 1548 1548 1546 1545 1544 1543 1542 1541 1540 1538 1536 1534 1533 1531 1529 1528 1526 1525 1524 1522 1520 1518 1516 1515 1513 1511 1510 1509 1508 1506 1505 1504 1503 1502 1501 1500 1499 1497 1496 1495 1494 1493 1492 1492 1491 1490 1490 1489 1488 1487 1486 1485 1485 1485 1484
1550 1551 1552 1553 1554 1554 1555 1555 1556 1556 1556 1556 1555 1555 1554 1554 1553 1552 1551 1550 1550 1550 1550 1550 1549 1549 1549 1548 1548 1548 1548 1546 1545 1544 1543 1543 1542 1540 1539 1538 1536 1534 1532 1531 1529 1528 1526 1525 1523 1521 1520 1518 1516 1515 1513 1511 1509 1508 1506 1505 1503 1502 1501 1500 1498 1497 1496 1495 1494 1493 1492 1490 1490 1489 1488 1488 1487 1487 1486 1485 1484 1484 1484 1484 1483
1550 1551 1552 1553 1554 1554 1555 1556 1556 1556 1556 1556 1555 1555 1554 1554 1553 1552 1551 1551 1550 1550 1550 1550 1550 1550 1549 1548 1549 1549 1547 1545 1545 1544 1543 1542 1541 1540 1539 1537 1535 1534 1532 1530 1529 1528 1526 1524 1523 1521 1520 1517 1515 1514 1513 1510 1508 1506 1504 1503 1501 1500 1499 1497 1496 1494 1493 1492 1491 1490 1489 1488 1487 1486 1486 1485 1485 1484 1483 1482 1482 1482 1482 1482 1481
1551 1551 1552 1553 1554 1555 1556 1556 1556 1557 1557 1556 1556 1555 1555 1554 1554 1553 1552 1551 1551 1551 1551 1551 1550 1550 1550 1549 1550 1549 1547 1545 1545 1544 1542 1541 1540 1539 1538 1536 1535 1533 1532 1530 1529 1527 1525 1524 1522 1520 1519 1517 1515 1514 1512 1509 1507 1505 1503 1501 1499 1498 1496 1495 1493 1492 1491 1489 1488 1486 1486 1485 1484 1483 1483 1482 1481 1481 1480 1480 1480 1480 1479 1479 1479
1550 1551 1552 1553 1554 1555 1556 1557 1557 1557 1557 1556 1556 1556 1555 1555 1554 1553 1553 1552 1552 1551 1551 1551 1550 1550 1550 1549 1549 1548 1546 1545 1544 1543 1542 1541 1539 1538 1537 1535 1534 1533 1532 1530 1528 1527 1525 1523 1521 1519 1518 1517 1515 1512 1510 1507 1504 1502 1500 1499 1497 1495 1493 1492 1490 1489 1488 1487 1485 1484 1483 1482 1481 1480 1480 1479 1479 1478 1478 1478 1478 1477 1477 1477 1476
1549 1550 1551 1553 1554 1555 1556 1557 1558 1557 1557 1557 1556 1556 1555 1555 1554 1554 1553 1553 1552 1551 1551 1551 1551 1550 1550 1549 1549 1547 1545 1544 1544 1542 1541 1540 1538 1537 1536 1535 1534 1533 1532 1530 1528 1526 1524 1521 1520 1518 1517 1515 1513 1510 1507 1505 1502 1499 1497 1495 1493 1492 1490 1489 1488 1486 1485 1484 1483 1481 1481 1480 1479 1478 1477 1477 1477 1476 1476 1475 1475 1475 1475 1475 1474
1548 1550 1551 1552 1554 1555 1556 1557 1557 1557 1557 1557 1556 1556 1555 1554 1554 1554 1553 1553 1552 1552 1552 1551 1551 1550 1549 1549 1549 1547 1544 1544 1543 1541 1540 1539 1537 1536 1536 1535 1534 1533 1531 1529 1527 1525 1523 1521 1519 1517 1516 1514 1511 1507 1505 1502 1499 1496 1494 1492 1490 1489 1487 1486 1485 1484 1482 1481 1480 1479 1478 1477 1476 1475 1475 1474 1474 1473 1473 1473 1473 1473 1473 1473 1472
1548 1550 1551 1552 1553 1554 1555 1556 1556 1557 1556 1556 1556 1555 1555 1554 1554 1554 1554 1554 1553 1552 1552 1551 1550 1550 1549 1548 1548 1546 1544 1543 1542 1541 1539 1538 1536 1536 1535 1535 1533 1532 1530 1528 1526 1524 1522 1520 1518 1516 1514 1512 1508 1505 1502 1499 1495 1493 1490 1488 1487 1486 1485 1483 1482 1481 1480 1478 1477 1476 1475 1475 1474 1473 1472 1471 1471 1471 1470 1470 1471 1471 1471 1471 1470
1549 1550 1551 1552 1553 1554 1554 1554 1555 1555 1556 1556 1555 1554 1554 1554 1554 1554 1554 1554 1553 1552 1551 1551 1550 1549 1548 1547 1547 1546 1544 1542 1541 1540 1539 1537 1536 1535 1535 1534 1533 1531 1530 1527 1525 1523 1522 1520 1517 1515 1512 1509 1505 1501 1498 1495 1492 1489 1487 1485 1484 1483 1482 1481 1479 1478 1477 1476 1474 1473 1472 1471 1471 1470 1469 1469 1468 1468 1467 1468 1468 1469 1469 1469 1469
1548 1549 1550 1551 1551 1551 1551 1552 1552 1552 1553 1553 1553 1553 1553 1554 1554 1554 1554 1554 1553 1552 1552 1552 1550 1549 1548 1547 1546 1545 1544 1541 1540 1539 1538 1537 1536 1535 1534 1533 1532 1530 1528 1526 1524 1522 1520 1518 1516 1513 1510 1506 1502 1498 1495 1492 1489 1486 1484 1483 1482 1481 1480 1478 1477 1475 1474 1473 1472 1470 1469 1468 1467 1467 1466 1466 1465 1465 1464 1465 1466 1466 1466 1467 1468
1546 1548 1549 1549 1549 1549 1549 1550 1550 1550 1550 1550 1551 1552 1552 1552 1553 1553 1553 1553 1553 1552 1552 1551 1550 1549 1548 1546 1545 1544 1543 1541 1540 1539 1538 1537 1536 1534 1533 1532 1531 1529 1527 1525 1523 1521 1519 1516 1514 1511 1507 1503 1499 1495 1492 1489 1487 1485 1483 1482 1481 1479 1478 1476 1475 1473 1471 1470 1469 1468 1467 1466 1465 1465 1464 1463 1463 1462 1462 1462 1463 1464 1465 1466 1466
1545 1546 1547 1547 1547 1548 1548 1549 1549 1549 1549 1549 1550 1551 1551 1551 1551 1552 1553 1553 1552 1551 1551 1550 1550 1549 1547 1546 1545 1543 1542 1541 1540 1539 1538 1537 1535 1534 1533 1531 1530 1528 1526 1524 1522 1520 1517 1514 1512 1509 1504 1500 1496 1492 1489 1487 1486 1484 1483 1481 1479 1478 1476 1474 1473 1471 1469 1468 1467 1466 1465 1464 1464 1463 1463 1462 1461 1461 1460 1460 1461 1462 1463 1464 1464
1544 1545 1545 1545 1546 1547 1548 1548 1548 1548 1548 1548 1549 1549 1550 1550 1551 1551 1552 1552 1551 1550 1550 1549 1549 1548 1547 1546 1545 1543 1542 1541 1540 1539 1537 1536 1535 1533 1532 1531 1529 1527 1524 1522 1521 1518 1515 1512 1510 1506 1501 1497 1494 1491 1488 1486 1485 1483 1481 1480 1478 1477 1475 1473 1472 1470 1468 1467 1466 1465 1465 1464 1463 1462 1461 1460 1459 1459 1459 1459 1459 1460 1461 1461 1462
1543 1544 1544 1545 1546 1547 1547 1547 1548 1548 1547 1547 1548 1548 1549 1550 1550 1550 1551 1551 1551 1550 1549 1549 1548 1548 1547 1546 1545 1544 1543 1541 1540 1539 1538 1536 1535 1533 1531 1530 1528 1526 1523 1521 1519 1516 1513 1510 1507 1502 1498 1495 1493 1490 1488 1486 1484 1482 1480 1478 1477 1475 1474 1473 1471 1469 1468 1466 1465 1464 1463 1462 1462 1460 1459 1459 1458 1457 1457 1457 1458 1459 1459 1460 1460
1542 1542 1543 1544 1545 1546 1547 1547 1548 1548 1546 1546 1547 1548 1549 1549 1549 1550 1550 1551 1550 1549 1549 1548 1548 1548 1547 1547 1546 1545 1543 1542 1541 1539 1538 1536 1535 1533 1531 1529 1527 1525 1522 1519 1517 1514 1511 1508 1504 1500 1497 1494 1492 1490 1488 1486 1484 1482 1479 1477 1476 1475 1474 1473 1471 1469 1468 1466 1465 1464 1462 1462 1461 1459 1458 1457 1457 1456 1456 1456 1457 1457 1458 1459 1459
1541 1541 1542 1544 1545 1545 1546 1547 1548 1547 1546 1546 1546 1547 1548 1549 1549 1549 1549 1550 1550 1549 1548 1548 1548 1548 1548 1547 1546 1545 1544 1543 1542 1540 1538 1536 1534 1532 1530 1528 1526 1523 1520 1517 1515 1512 1509 1505 1502 1499 1496 1494 1492 1490 1488 1486 1484 1481 1479 1478 1477 1475 1474 1473 1471 1469 1467 1466 1464 1463 1462 1461 1460 1459 1458 1457 1456 1456 1455 1455 1455 1456 1457 1458 1459
1541 1541 1542 1543 1544 1545 1546 1547 1547 1547 1547 1547 1547 1547 1548 1549 1549 1549 1549 1550 1550 1549 1549 1549 1549 1549 1548 1547 1547 1546 1545 1544 1543 1540 1538 1536 1534 1532 1529 1527 1524 1522 1519 1516 1513 1509 1506 1504 1502 1499 1496 1494 1492 1490 1488 1486 1484 1482 1480 1479 1477 1476 1474 1472 1471 1469 1467 1465 1464 1462 1461 1460 1459 1458 1457 1456 1456 1455 1455 1454 1454 1455 1456 1457 1458
1541 1541 1542 1543 1545 1546 1546 1547 1548 1548 1547 1547 1547 1547 1548 1549 1550 1549 1550 1551 1550 1549 1549 1549 1549 1549 1549 1548 1547 1546 1546 1545 1543 1540 1538 1536 1534 1531 1529 1526 1523 1520 1517 1514 1511 1507 1506 1504 1502 1499 1496 1494 1492 1490 1489 1487 1485 1483 1481 1480 1478 1476 1474 1472 1471 1469 1467 1464 1463 1461 1460 1459 1458 1457 1456 1456 1455 1455 1455 1454 1454 1454 1455 1456 1457
1540 1540 1541 1543 1544 1546 1547 1547 1549 1549 1548 1548 1548 1548 1549 1550 1550 1550 1551 1551 1551 1550 1550 1549 1549 1549 1549 1548 1547 1547 1546 1545 1542 1540 1538 1536 1533 1531 1528 1525 1522 1519 1516 1513 1509 1506 1506 1505 1502 1498 1495 1494 1493 1491 1489 1487 1485 1484 1482 1480 1478 1477 1475 1472 1470 1468 1466 1464 1462 1460 1459 1458 1457 1457 1456 1455 1455 1455 1454 1454 1454 1454 1454 1455 1456
1539 1540 1541 1543 1544 1546 1547 1548 1549 1549 1548 1547 1547 1547 1548 1550 1550 1550 1550 1549 1549 1549 1549 1549 1549 1549 1549 1548 1547 1546 1546 1544 1542 1540 1538 1535 1533 1530 1527 1525 1522 1519 1516 1512 1508 1507 1506 1504 1501 1498 1496 1494 1493 1491 1489 1487 1485 1484 1482 1480 1479 1477 1474 1472 1470 1467 1465 1464 1462 1460 1459 1458 1457 1456 1456 1455 1455 1455 1455 1454 1454 1454 1454 1454 1455
1539 1540 1541 1543 1544 1545 1547 1548 1549 1549 1548 1547 1546 1547 1547 1549 1549 1549 1548 1548 1548 1547 1547 1547 1547 1547 1548 1548 1547 1545 1545 1543 1541 1540 1538 1535 1533 1530 1527 1525 1522 1519 1515 1511 1509 1508 1507 1504 1501 1498 1496 1495 1493 1491 1490 1488 1486 1484 1482 1480 1479 1477 1474 1472 1470 1468 1466 1464 1462 1460 1459 1458 1457 1456 1456 1456 1455 1455 1455 1455 1455 1455 1454 1454 1455
1539 1540 1541 1543 1543 1545 1547 1548 1548 1548 1548 1547 1546 1546 1547 1548 1548 1548 1548 1547 1547 1547 1546 1546 1546 1546 1547 1546 1546 1545 1544 1543 1541 1539 1537 1535 1533 1530 1528 1525 1522 1518 1514 1511 1510 1509 1506 1503 1501 1499 1497 1495 1494 1492 1490 1488 1486 1485 1483 1481 1479 1477 1475 1473 1470 1468 1466 1465 1463 1461 1459 1458 1457 1456 1456 1456 1456 1456 1455 1455 1455 1455 1455 1455 1455
1538 1539 1541 1542 1542 1543 1546 1547 1547 1547 1547 1546 1546 1546 1547 1548 1548 1547 1547 1547 1546 1546 1546 1546 1546 1546 1546 1546 1545 1544 1543 1542 1541 1539 1537 1535 1532 1530 1528 1525 1521 1517 1514 1512 1512 1509 1506 1503 1502 1500 1498 1497 1495 1493 1491 1489 1487 1486 1483 1481 1480 1478 1476 1473 1471 1469 1467 1465 1464 1462 1460 1459 1458 1457 1457 1457 1456 1456 1456 1456 1456 1456 1456 1456 1456
1537 1538 1540 1540 1540 1542 1545 1546 1546 1547 1546 1546 1546 1546 1547 1548 1548 1547 1546 1546 1546 1546 1546 1546 1546 1546 1545 1545 1545 1544 1543 1542 1541 1539 1537 1535 1532 1530 1527 1524 1521 1517 1515 1514 1513 1510 1506 1504 1503 1501 1499 1498 1496 1494 1492 1490 1488 1487 1485 1482 1481 1479 1477 1475 1473 1471 1469 1467 1465 1463 1462 1461 1460 1459 1458 1458 1458 1458 1458 1457 1457 1457 1457 1457 1457
1536 1537 1538 1539 1539 1541 1543 1544 1545 1546 1546 1546 1546 1547 1548 1549 1549 1548 1547 1546 1546 1546 1546 1546 1546 1546 1545 1545 1544 1544 1543 1542 1541 1539 1537 1534 1532 1530 1527 1524 1522 1519 1516 1515 1514 1511 1508 1506 1503 1502 1500 1498 1497 1495 1493 1491 1489 1488 1486 1484 1482 1480 1478 1476 1474 1472 1471 1469 1467 1465 1464 1463 1462 1462 1461 1461 1460 1460 1459 1459 1458 1458 1458 1459 1459
1535 1536 1537 1537 1538 1540 1542 1544 1544 1545 1545 1545 1546 1547 1548 1548 1548 1548 1547 1547 1547 1547 1547 1547 1546 1545 1545 1545 1545 1544 1543 1542 1541 1539 1537 1535 1532 1529 1527 1526 1523 1520 1518 1517 1515 1513 1510 1507 1505 1503 1501 1499 1497 1496 1494 1492 1490 1489 1487 1485 1484 1482 1480 1478 1476 1474 1472 1471 1469 1468 1467 1466 1465 1465 1464 1463 1462 1462 1461 1461 1460 1460 1460 1461 1461
1533 1534 1535 1536 1538 1540 1542 1543 1543 1544 1544 1545 1546 1547 1548 1548 1548 1548 1547 1547 1547 1548 1548 1548 1546 1546 1545 1545 1545 1544 1543 1542 1540 1539 1537 1534 1532 1530 1528 1527 1524 1522 1520 1519 1517 1514 1512 1509 1506 1504 1502 1500 1498 1496 1495 1493 1492 1490 1488 1487 1485 1483 1481 1479 1478 1476 1474 1473 1471 1470 1469 1469 1468 1467 1466 1466 1465 1464 1464 1463 1463 1463 1463 1463 1463
1532 1533 1534 1535 1537 1539 1541 1542 1543 1543 1544 1544 1546 1547 1547 1548 1548 1548 1547 1547 1547 1548 1548 1547 1547 1546 1546 1545 1545 1544 1543 1542 1540 1539 1537 1535 1533 1532 1531 1528 1526 1524 1522 1521 1518 1516 1514 1511 1508 1505 1503 1501 1499 1497 1496 1494 1493 1491 1489 1488 1487 1485 1483 1481 1480 1478 1476 1475 1473 1472 1471 1470 1470 1469 1468 1468 1467 1466 1466 1465 1465 1465 1465 1465 1465
1531 1532 1533 1534 1536 1538 1540 1541 1542 1542 1543 1544 1545 1547 1547 1547 1547 1547 1547 1547 1547 1548 1548 1547 1547 1547 1547 1546 1545 1544 1543 1542 1541 1540 1539 1537 1535 1534 1532 1530 1527 1526 1524 1522 1520 1517 1515 1513 1510 1506 1504 1502 1500 1499 1497 1495 1494 1492 1490 1489 1488 1487 1485 1483 1481 1479 1478 1477 1475 1474 1473 1472 1472 1471 1470 1470 1469 1469 1468 1467 1467 1467 1467 1467 1467
1530 1531 1532 1533 1536 1537 1539 1540 1541 1542 1542 1543 1545 1546 1547 1547 1547 1547 1546 1547 1547 1548 1548 1547 1547 1547 1547 1546 1546 1545 1544 1544 1543 1542 1541 1539 1537 1535 1533 1531 1529 1527 1525 1524 1522 1519 1517 1514 1511 1508 1506 1504 1502 1500 1498 1497 1495 1493 1492 1491 1490 1488 1487 1485 1483 1482 1480 1479 1478 1477 1476 1475 1474 1474 1473 1472 1472 1471 1471 1470 1470 1470 1470 1470 1470
1528 1529 1531 1533 1535 1537 1538 1539 1540 1541 1542 1543 1545 1546 1546 1547 1547 1546 1546 1547 1547 1548 1548 1547 1547 1547 1546 1546 1545 1545 1545 1545 1544 1543 1541 1540 1538 1536 1534 1533 1531 1528 1527 1525 1523 1520 1518 1516 1513 1510 1507 1505 1503 1502 1500 1498 1496 1495 1493 1492 1491 1490 1489 1487 1486 1484 1483 1482 1481 1480 1479 1478 1477 1477 1476 1475 1475 1474 1474 1474 1473 1473 1473 1473 1473
1527 1529 1531 1532 1534 1536 1537 1538 1539 1540 1541 1542 1544 1545 1546 1546 1546 1546 1546 1547 1547 1548 1547 1547 1547 1546 1546 1545 1545 1545 1545 1545 1545 1543 1542 1541 1539 1538 1536 1534 1532 1530 1528 1526 1524 1521 1519 1517 1514 1512 1509 1506 1505 1503 1501 1500 1498 1496 1495 1494 1493 1492 1491 1490 1489 1488 1487 1485 1484 1483 1482 1482 1481 1480 1479 1479 1478 1478 1478 1477 1477 1476 1476 1476 1476
1526 1528 1529 1531 1533 1535 1536 1537 1539 1539 1540 1542 1543 1544 1545 1545 1545 1546 1546 1546 1547 1547 1547 1547 1546 1546 1545 1545 1545 1545 1545 1546 1545 1544 1543 1542 1541 1539 1538 1536 1534 1531 1529 1527 1524 1522 1520 1518 1516 1513 1510 1508 1506 1504 1503 1501 1499 1497 1497 1496 1495 1494 1494 1493 1492 1491 1490 1489 1488 1487 1486 1485 1485 1484 1483 1483 1482 1481 1481 1481 1480 1480 1480 1480 1480
1525 1526 1528 1530 1532 1534 1535 1537 1537 1538 1539 1541 1542 1543 1544 1544 1545 1545 1546 1546 1547 1547 1547 1547 1546 1546 1546 1546 1546 1546 1546 1547 1546 1545 1544 1543 1542 1541 1539 1537 1535 1533 1531 1528 1525 1523 1521 1519 1517 1515 1512 1510 1508 1506 1504 1503 1501 1499 1499 1498 1497 1497 1496 1495 1494 1493 1493 1492 1491 1490 1489 1489 1488 1488 1487 1487 1486 1485 1485 1484 1484 1484 1484 1484 1485
1523 1525 1527 1529 1531 1533 1534 1535 1536 1537 1539 1540 1541 1542 1543 1543 1544 1545 1545 1546 1546 1547 1547 1547 1547 1547 1547 1547 1547 1547 1547 1547 1546 1545 1545 1544 1543 1542 1541 1539 1536 1535 1533 1530 1527 1524 1522 1520 1518 1517 1514 1512 1510 1508 1506 1505 1503 1502 1501 1500 1499 1498 1498 1497 1496 1496 1495 1495 1494 1493 1493 1492 1492 1491 1491 1490 1490 1489 1489 1488 1488 1488 1489 1489 1489
1522 1524 1525 1527 1529 1531 1533 1534 1535 1536 1537 1539 1540 1541 1542 1543 1544 1544 1545 1546 1546 1546 1547 1547 1547 1547 1547 1547 1548 1548 1548 1548 1547 1546 1546 1545 1544 1543 1542 1540 1538 1536 1534 1532 1530 1527 1524 1521 1519 1518 1516 1514 1512 1511 1509 1507 1505 1504 1502 1501 1500 1500 1500 1500 1499 1499 1498 1498 1497 1496 1496 1495 1495 1495 1494 1494 1493 1493 1493 1492 1492 1492 1492 1493 1493
1521 1522 1524 1526 1528 1530 1531 1532 1534 1535 1537 1539 1540 1541 1541 1542 1543 1544 1545 1545 1545 1546 1546 1546 1547 1547 1547 1548 1548 1548 1548 1548 1548 1547 1546 1546 1545 1544 1543 1541 1540 1538 1536 1534 1532 1529 1527 1524 1522 1520 1518 1516 1514 1512 1511 1509 1507 1506 1504 1502 1502 1502 1502 1502 1502 1501 1501 1501 1500 1500 1499 1499 1499 1498 1498 1497 1497 1497 1496 1496 1496 1496 1496 1496 1497
1519 1521 1523 1525 1527 1528 1529 1530 1532 1534 1536 1538 1539 1540 1541 1542 1542 1543 1544 1544 1544 1545 1546 1546 1546 1547 1547 1548 1548 1549 1549 1549 1549 1548 1547 1546 1545 1544 1544 1543 1541 1540 1538 1536 1534 1532 1529 1527 1525 1523 1521 1518 1516 1514 1512 1511 1509 1508 1506 1504 1504 1503 1503 1504 1504 1504 1504 1503 1503 1503 1502 1502 1502 1502 1502 1502 1501 1501 1500 1500 1500 1500 1500 1500 1501
1517 1519 1521 1523 1525 1526 1527 1529 1531 1533 1535 1537 1539 1540 1540 1541 1541 1542 1543 1543 1543 1544 1545 1546 1546 1546 1547 1548 1548 1549 1549 1549 1549 1548 1548 1547 1546 1545 1544 1543 1543 1542 1540 1538 1537 1535 1532 1530 1528 1526 1524 1521 1519 1517 1516 1514 1512 1511 1509 1507 1506 1506 1505 1506 1507 1507 1507 1507 1506 1506 1506 1505 1505 1505 1505 1505 1505 1505 1505 1505 1505 1505 1505 1505 1505
1515 1518 1520 1521 1523 1524 1525 1527 1530 1532 1534 1536 1538 1539 1539 1540 1540 1541 1542 1542 1543 1544 1544 1545 1545 1546 1546 1547 1548 1549 1549 1549 1549 1549 1549 1548 1547 1546 1545 1544 1544 1543 1542 1541 1539 1537 1535 1533 1531 1529 1527 1525 1523 1521 1519 1518 1516 1514 1512 1511 1510 1509 1509 1509 1509 1510 1511 1511 1511 1510 1509 1509 1509 1509 1509 1509 1508 1508 1508 1508 1508 1509 1509 1509 1509
1514 1516 1518 1520 1522 1523 1524 1526 1529 1531 1533 1535 1537 1537 1538 1539 1540 1540 1541 1542 1542 1543 1543 1544 1545 1545 1546 1547 1548 1548 1549 1549 1549 1549 1549 1548 1548 1547 1546 1546 1545 1544 1543 1542 1541 1540 1538 1536 1534 1532 1530 1528 1527 1525 1523 1522 1520 1518 1517 1516 1515 1514 1513 1512 1512 1512 1514 1515 1515 1514 1514 1513 1513 1513 1513 1513 1512 1512 1512 1512 1512 1512 1513 1513 1513
1512 1515 1517 1519 1521 1522 1524 1525 1528 1529 1531 1533 1535 1536 1537 1538 1539 1540 1540 1541 1541 1542 1543 1543 1544 1545 1546 1547 1547 1548 1549 1549 1549 1549 1549 1549 1548 1548 1547 1547 1546 1545 1545 1544 1543 1542 1540 1539 1537 1536 1534 1532 1530 1529 1527 1526 1525 1524 1523 1522 1520 1519 1518 1516 1515 1515 1515 1517 1517 1517 1517 1517 1517 1517 1517 1517 1517 1517 1516 1516 1516 1516 1517 1517 1517